Preview of NWS' New Version of Forecast
This preview is not operational and should not be used for support decisions.

Regional Weather Roundup (RWR)

Issued by Gray - Portland, ME (GYX)

                            
000
ASUS41 KGYX 211110
RWRGYX
WEATHER ROUNDUP FOR MAINE AND NEW HAMPSHIRE
NATIONAL WEATHER SERVICE GRAY ME
700 AM EDT WED AUG 21 2019

MEZ002-005-006-010-012-015-018-020-021-024-026-027-029-211200-
MAINE
  
CITY           SKY/WX    TMP DP  RH WIND       PRES   REMARKS
PORTLAND       PTSUNNY   63  59  87 CALM      29.99F                  
SANFORD        FAIR      60  59  96 CALM      30.00R                  
BAR HARBOR     FAIR      66  63  90 S9        30.01S                  
WISCASSET      FOG       62  61  96 CALM      30.01S VSB<1/4          
ROCKLAND       PTSUNNY   61  61 100 CALM      30.00F                  
FRYEBURG       FAIR      58  55  90 CALM      30.01S                  
LEWISTONAUBURN FAIR      56  56 100 N3        30.00S                  
AUGUSTA        FOG       60  60 100 VRB3      30.00S VSB<1/4          
WATERVILLE     FOG       60  59  96 SW3       29.97S VSB 1/4          
BANGOR         PTSUNNY   63  60  90 CALM      29.99F                  
GREENVILLE     NOT AVBL                                               
MILLINOCKET    FAIR      58  55  90 CALM      30.00S                  
HOULTON        FAIR      60  56  86 S3        29.97F                  
PRESQUE ISLE   FAIR      55  53  93 CALM      29.98S                  
FRENCHVILLE    FAIR      58  54  86 S7        29.95F                  
CARIBOU        FAIR      58  53  84 CALM      29.97R                  
$$

NHZ002-005-008-009-011-012-014-211200-
NEW HAMPSHIRE
  
CITY           SKY/WX    TMP DP  RH WIND       PRES   REMARKS
PORTSMOUTH     PTSUNNY   65  62  90 CALM      29.98S                  
ROCHESTER      FAIR      62  58  86 CALM      29.99S                  
NASHUA         FAIR      64  63  96 CALM      30.00F                  
MANCHESTER     PTSUNNY   65  61  87 S3        29.98S                  
CONCORD        PTSUNNY   59  57  93 CALM      30.00S                  
LACONIA        FAIR      59  58  96 CALM      30.01S                  
PLYMOUTH       FOG       55  54  97 CALM      30.01S VSB<1/4          
BERLIN         NOT AVBL                                               
WHITEFIELD     FAIR      51  48  89 CALM      30.01S                  
JAFFREY        FAIR      63  60  90 CALM      30.03S                  
KEENE          MOCLDY    60  59  96 CALM      30.01F                  
LEBANON        FAIR      58  54  86 CALM      29.99S                  
MT WASHINGTON  PTSUNNY   50  48  93 W31         N/A                   
$$

VTZ005-007-008-211200-
VERMONT
  
CITY           SKY/WX    TMP DP  RH WIND       PRES   REMARKS
ST JOHNSBURY     N/A     55  55 100 MISG      29.99S                  
MONTPELIER     FAIR      56  55  97 CALM      30.02S                  
BURLINGTON     MOCLDY    64  58  80 E3        29.92F                  
$$

MAZ007-012-024-CTZ003-RIZ002-NYZ038-NYZ072-211200-
SOUTHERN NEW ENGLAND AND NY
  
CITY           SKY/WX    TMP DP  RH WIND       PRES   REMARKS
BOSTON         PTSUNNY   72  63  73 S6        30.00S                  
WORCESTER      FAIR      68  66  93 SW10      30.03S                  
NANTUCKET      FAIR      70  70 100 SE8       30.03S                  
PROVIDENCE     FAIR      69  65  86 CALM      30.02S                  
HARTFORD       CLOUDY    70  66  87 CALM      30.00S                  
ALBANY         TSTM      70  66  87 SE8       29.96F                  
NEW YORK CITY  MOCLDY    78  73  84 SW3       29.97R                  
$$

ANZ081-ANZ082-ANZ150-NHZ014-MEZ023>029-211200-
COASTAL MARINE OBSERVATIONS
  
STATION/POSITION TIME  TEMP    WIND        PRES    WAVE
                       AIR SEA DIR/SP/G            HT/PER
                 (UTC) (F)     (DEG/KT/KT) (MB)    (FT/S)
MATINICUS ROCK   1050   62                 1015.7S
ISLE OF SHOALS   1000   68     190/ 10/ 10 1015.0F
JEFFREYS LEDGE   1038      68                N/A     2/10
CASHES LEDGE BUO 1050   65 62  180/  8/ 10 1016.4F   2/ 9
GEORGES BANK BUO 1050   67 68  100/  2/  2 1019.2R   2/ 9
$$

.............KEY..............
   WCI - WIND CHILL
   TC  - TEMPERATURE IN CELSIUS
   VSB - VISIBILITY IN MILES
   HX  - HEAT INDEX
   FAIR- INDICATES FEW OR NO CLOUDS BELOW 12,000 FT, WITH NO 
         SIGNIFICANT WEATHER AND/OR OBSTRUCTIONS TO VISIBILITY.